Погода в Бакуриани

Грузия     41˚45′02″N   43˚31′42″E
темп.,
°C
ветер,
м/с
пор.,
м/с
влажн.,
%
обл.,
%
осадки,
мм/ч
давл.,
гПа
погр.,
м
5 декабря, сб
сб501:00−4˚ююв33740 0.0 102850
04:00−4˚ююв33750 0.0 102747
07:00−3˚ююв33680 0.0 102769
10:00−2˚ююв23630 0.0 1026149
13:00+1˚ююв22570 0.0 1024586
16:00ююв23650 0.0 1023465
19:00−3˚юв33790 0.0 102586
22:00−4˚ююв33750 0.0 102582
6 декабря, вс
вс601:00−4˚ююв33720 0.0 102587
04:00−4˚ююв33730 0.0 102587
07:00−5˚юв33760 0.0 102587
10:00−3˚юв336813 0.0 1025204
13:00юв225827 0.0 1023666
16:00−1˚вюв236336 0.0 1023522
19:00−5˚юв347519 0.0 1025160
22:00−5˚юв357210 0.0 1026195
7 декабря, пн
пн701:00−6˚юв45714 0.0 1027227
04:00−6˚юв35726 0.0 1027222
07:00−7˚юв45716 0.0 1028205
10:00−5˚юв45656 0.0 1028229
13:00−2˚юв34590 0.0 1026431
16:00−3˚юв34630 0.0 1026381
19:00−5˚ююв34670 0.0 1028121
22:00−5˚ююв34642 0.0 1029101
8 декабря, вт
вт801:00−5˚ююв3365100 0.0 102987
04:00−5˚ююв336881 0.0 102868
07:00−5˚ю337229 0.0 102757
10:00−3˚ю236526 0.0 1028119
13:00+1˚ююв12580 0.0 1026487
16:00ююв12670 0.0 1025243
19:00−4˚ююв33764 0.0 102753
22:00−3˚ююв337724 0.0 102866
9 декабря, ср
ср901:00−4˚ююв337553 0.0 102880
04:00−3˚ююв337643 0.0 102771
07:00−3˚ююв3376100 0.0 102661
10:00−1˚ю2371100 0.0 102693
13:00+2˚зсз1167100 0.0 1025331
16:00зсз1178100 0.1 1025202
19:00−2˚ююз1196100 0.1 102624
22:00−1˚ю1191100 0.2 102624